NAKANO
         **** Don't distribute anyone except personal use only ****
           (C) Copyright 2009 Orbit.Astro.Assoc./ComputingSection
write mail from CFAD0::NAKANO on 2009-09-05 06:52:59(JST).
 
    C/2009 E1 (Itagaki)
Epoch 2009 Mar. 30.0 TT = JDT 2454920.5  
T 2009 Apr. 7.92031 TT                                  Nakano
q   0.5997220            (2000.0)            P               Q
z  +0.0248894      Peri.   48.95507     +0.26037793     +0.59132619
 +/-0.0000016      Node   105.96189     +0.45679851     -0.77188451
e   0.9850733      Incl.  127.45343     +0.85061063     +0.23351155
a  40.18 AU         P     254.7 years
From 514 observations 2009 Mar. 14-July 25, mean residual 0".77.

NAKANO
         **** Don't distribute anyone except personal use only ****
                (C) Copyright 2009 OAA/ComputingSection
write mail from CFAD0::NAKANO on 2009-07-29 07:36:14(JST).
 
    C/2009 E1 (Itagaki)
Epoch 2009 Mar. 30.0 TT = JDT 2454920.5  
T 2009 Apr. 7.92085 TT                                  Nakano
q   0.5997213            (2000.0)            P               Q
z  +0.0249420      Peri.   48.95599     +0.26038743     +0.59131263
 +/-0.0000053      Node   105.96146     +0.45678116     -0.77189864
e   0.9850417      Incl.  127.45288     +0.85061705     +0.23349917
a  40.09 AU         P     253.9 years
From 424 observations 2009 Mar. 14-June 16, mean residual 0".74.
NAKANO
         **** Don't distribute anyone except personal use only ****
                (C) Copyright 2009 OAA/ComputingSection
write mail from CFAD0::NAKANO on 2009-06-20 01:00:31(JST).

    C/2009 E1 (Itagaki)
Epoch 2009 Mar. 30.0 TT = JDT 2454920.5  
T 2009 Apr. 7.92147 TT                                  Nakano
q   0.5997185            (2000.0)            P               Q
z  +0.0249906      Peri.   48.95731     +0.26039775     +0.59129618
 +/-0.0000137      Node   105.96112     +0.45675743     -0.77191632
e   0.9850127      Incl.  127.45210     +0.85062663     +0.23348237
a  40.02 AU         P     253.1 years
From 313 observations 2009 Mar. 14-May 8, mean residual 0".74.

NAKANO
         **** Don't distribute anyone except personal use only ****
                (C) Copyright 2009 OAA/ComputingSection
write mail from CFAD0::NAKANO on 2009-05-12 03:07:22(JST).
 
◎C/2009 E1の軌道と予報位置

 上尾の門田健一氏は,4月22日に明け方の空に回ったこの彗星の観測に成功
しました.彗星のCCD全光度は9.8等でした.

    C/2009 E1 (Itagaki)
T 2009 Apr. 7.92165 TT                                  Nakano
q   0.5997144            (2000.0)            P               Q
z  +0.0250110      Peri.   48.95798     +0.26039998     +0.59129717
 +/-0.0000255      Node   105.96149     +0.45674995     -0.77191816
e   0.9850005      Incl.  127.45212     +0.85062997     +0.23347380
a  39.98 AU         P     252.8 years
From 303 observations 2009 Mar. 14-Apr. 22.

2009/        α  (2000) δ      △      r    Daily motion  Elong. Phase    m1   天文薄明開始時
 27h JST    h  m       。  ,        AU      AU      ,     。     。      。      等     h。    A 。 
Apr. 20   01 14.55  +29 58.5    1.503   0.662    31.8/283    20.5   32.0    8.6    +1.5  233.5
     21   01 12.16  +30 05.6    1.506   0.671    31.3/282    20.9   32.3    8.7    +2.4  234.1
     22   01 09.80  +30 12.1    1.509   0.681    30.8/281    21.5   32.7    8.7    +3.2  234.6
     23   01 07.47  +30 17.9    1.510   0.691    30.3/280    22.1   33.2    8.8    +4.1  235.2
     24   01 05.16  +30 23.2    1.512   0.702    29.9/279    22.8   33.7    8.9    +4.9  235.8
     25   01 02.88  +30 28.0    1.512   0.713    29.5/279    23.5   34.3    8.9    +5.8  236.4
     26   01 00.62  +30 32.3    1.512   0.725    29.1/278    24.3   34.8    9.0    +6.6  236.9
     27   00 58.39  +30 36.1    1.512   0.737    28.8/277    25.1   35.5    9.1    +7.5  237.5
     28   00 56.17  +30 39.6    1.510   0.749    28.5/276    26.0   36.1    9.1    +8.3  238.1
     29   00 53.98  +30 42.7    1.509   0.762    28.2/276    26.9   36.8    9.2    +9.1  238.6
     30   00 51.81  +30 45.5    1.506   0.775    28.0/275    27.9   37.4    9.3   +10.0  239.2
May   1   00 49.65  +30 47.9    1.503   0.788    27.7/275    28.8   38.1    9.4   +10.8  239.7
      2   00 47.50  +30 50.1    1.500   0.801    27.6/274    29.8   38.7    9.4   +11.7  240.3
      3   00 45.36  +30 52.0    1.496   0.815    27.4/274    30.8   39.4    9.5   +12.5  240.8
      4   00 43.23  +30 53.7    1.491   0.829    27.4/273    31.9   40.0    9.6   +13.4  241.4
      5   00 41.11  +30 55.2    1.486   0.843    27.3/273    32.9   40.6    9.6   +14.2  241.9
      6   00 38.99  +30 56.4    1.481   0.857    27.3/272    34.0   41.2    9.7   +15.1  242.5
      7   00 36.87  +30 57.5    1.475   0.871    27.3/272    35.1   41.8    9.7   +15.9  243.0
      8   00 34.75  +30 58.3    1.469   0.886    27.3/272    36.2   42.3    9.8   +16.8  243.6
      9   00 32.63  +30 59.0    1.462   0.900    27.4/271    37.4   42.9    9.9   +17.7  244.1
     10   00 30.50  +30 59.6    1.455   0.915    27.6/271    38.5   43.4    9.9   +18.6  244.7
     11   00 28.35  +31 00.0    1.447   0.930    27.7/271    39.7   43.9   10.0  +19.5  245.2
     12   00 26.20  +31 00.2    1.440   0.945    27.9/270    40.9   44.4   10.0   +20.4  245.8
     13   00 24.02  +31 00.3    1.431   0.960    28.2/270    42.0   44.8   10.1   +21.3  246.3
     14   00 21.83  +31 00.3    1.423   0.975    28.5/270    43.2   45.3   10.2   +22.2  246.9
     15   00 19.62  +31 00.1    1.414   0.990    28.8/269    44.5   45.7   10.2   +23.1  247.5
     16   00 17.38  +30 59.8    1.404   1.005    29.2/269    45.7   46.0   10.3   +24.1  248.0
     17   00 15.11  +30 59.3    1.395   1.021    29.6/269    46.9   46.4   10.3   +25.0  248.6
     18   00 12.80  +30 58.6    1.385   1.036    30.1/269    48.2   46.7   10.4   +26.0  249.2
     19   00 10.47  +30 57.8    1.375   1.051    30.6/268    49.5   47.0   10.4   +27.0  249.8
     20   00 08.09  +30 56.8    1.364   1.067    31.2/268    50.7   47.3   10.5   +28.0  250.4
     21   00 05.67  +30 55.7    1.354   1.082    31.8/268    52.0   47.5   10.5   +29.0  251.0
     22   00 03.20  +30 54.3    1.343   1.098    32.4/267    53.3   47.7   10.5   +30.1  251.6
     23   00 00.69  +30 52.7    1.332   1.113    33.1/267    54.7   47.9   10.6   +31.1  252.2
     24   23 58.12  +30 50.9    1.320   1.129    33.9/267    56.0   48.1   10.6   +32.2  252.8
     25   23 55.50  +30 48.9    1.309   1.144    34.7/266    57.4   48.2   10.7   +33.3  253.5
     26   23 52.81  +30 46.6    1.297   1.160    35.5/266    58.7   48.3   10.7   +34.4  254.1
     27   23 50.06  +30 44.0    1.285   1.175    36.5/266    60.1   48.4   10.7   +35.5  254.8
     28   23 47.24  +30 41.1    1.273   1.191    37.4/265    61.5   48.4   10.8   +36.7  255.5
     29   23 44.35  +30 37.8    1.261   1.206    38.4/265    62.9   48.4   10.8   +37.9  256.2
     30   23 41.39  +30 34.2    1.249   1.222    39.5/264    64.4   48.4   10.9   +39.1  257.0
     31   23 38.35  +30 30.2    1.237   1.237    40.6/264    65.8   48.4   10.9   +40.3  257.7
June  1   23 35.22  +30 25.8    1.224   1.253    41.8/263    67.3   48.3   10.9   +41.6  258.5
                    m1 =  9.5 + 5 log △ + 10.0 log r
NAKANO
         **** Don't distribute anyone except personal use only ****
                (C) Copyright 2009 OAA/ComputingSection
write mail from CFAD0::NAKANO on 2009-04-24 07:10:42(JST).
 
    C/2009 E1 (Itagaki)
T 2009 Apr. 7.92238 TT                                  Nakano
q   0.5997047            (2000.0)            P               Q
z  +0.0250838      Peri.   48.96014     +0.26041043     +0.59128885
 +/-0.0000482      Node   105.96202     +0.45672038     -0.77193276
e   0.9849571      Incl.  127.45164     +0.85064264     +0.23344660
a  39.87 AU         P     251.7 years
From 286 observations 2009 Mar. 14-Apr. 10.
NAKANO
         **** Don't distribute anyone except personal use only ****
                (C) Copyright 2009 OAA/ComputingSection
write mail from CFAD0::NAKANO on 2009-04-17 06:28:28(JST).
 

◎C/2009 E1の軌道と予報位置

 4月下旬には,彗星は,明け方の空に見えるようになります.スペインの
ゴンザレスは,標高1720-mの観測地で,4月2日の眼視全光度を7.8等と観測
しています.大気が澄んでいて,良く見えるのでしょうね.なお,予報光度
は,氏の観測に合わせてあります.明日が近日点通過が板垣さんは,日本に
はいません.

